Voltar ao catálogo

ONDOSAT-OWL-8

AtivoRádio AmadorVLEO
NORAD 62399·PAYLOAD·🇲🇳 Mongolia
Este nome de satélite ainda não foi confirmado por fontes oficiais.

Lançado Dec 21, 2024 de Vandenberg Space Force Base

Loading…

Próximas Passagens (próximas 24 horas)

TLE

AtualizadoSource: Space-Track

Época: Sep 14, 2026, 15:26 UTC

1 62399U 24247Y   26257.64366468  .00039092  00000-0  57063-3 0  9990
2 62399  44.9915 108.9667 0004866 202.3320 157.7362 15.55048389 97304

Acompanhe ONDOSAT-OWL-8 em tempo real com AllMySat

Download on the App Store